ISR991 EDDF-EDDH

Flight info

Callsign ISR991
Flight time 0h 46m
Altitude 33000
Route MARUN2D MARUN Y150 TOLGI DCT SAS P605 NOLGO NOLGO6A
Aircraft A320/M-SDE2FGIJ1LORVWY/SB1

Departure

Time 2026-05-07 20:01
Airport Frankfurt Main Airport (EDDF)

Arrival

Time 2026-05-07 20:48
Airport Hamburg Helmut Schmidt Airport (EDDH)
Time Latitude Longitude Altitude Speed Heading
2026-05-07 19:42 50.04776 8.58365 345 ft 0 kts 159°
2026-05-07 19:48 50.04784 8.58342 353 ft 0 kts 159°
2026-05-07 19:52 50.04792 8.58337 357 ft 4 kts 171°
2026-05-07 19:52 50.04817 8.58340 352 ft 4 kts 167°
2026-05-07 19:52 50.04840 8.58331 356 ft 4 kts 209°
2026-05-07 19:53 50.04853 8.58353 356 ft 2 kts 249°
2026-05-07 19:53 50.04856 8.58369 358 ft 2 kts 249°
2026-05-07 19:55 50.04857 8.58363 359 ft 4 kts 263°
2026-05-07 19:55 50.04848 8.58281 349 ft 9 kts 260°
2026-05-07 19:55 50.04830 8.58175 353 ft 11 kts 251°
2026-05-07 19:55 50.04791 8.58023 351 ft 19 kts 238°
2026-05-07 19:56 50.04680 8.57979 351 ft 19 kts 165°
2026-05-07 19:56 50.04550 8.57997 345 ft 19 kts 221°
2026-05-07 19:56 50.04492 8.57797 349 ft 22 kts 250°
2026-05-07 19:56 50.04435 8.57556 351 ft 26 kts 250°
2026-05-07 19:57 50.04370 8.57283 348 ft 28 kts 250°
2026-05-07 19:57 50.04298 8.56983 345 ft 31 kts 249°
2026-05-07 19:57 50.04222 8.56666 349 ft 32 kts 250°
2026-05-07 19:57 50.04142 8.56329 352 ft 34 kts 249°
2026-05-07 19:58 50.04058 8.55978 346 ft 35 kts 250°
2026-05-07 19:58 50.03970 8.55613 351 ft 37 kts 249°
2026-05-07 19:58 50.03883 8.55238 347 ft 38 kts 250°
2026-05-07 19:58 50.03789 8.54849 352 ft 39 kts 249°
2026-05-07 19:59 50.03693 8.54450 351 ft 40 kts 250°
2026-05-07 19:59 50.03599 8.54044 349 ft 41 kts 250°
2026-05-07 19:59 50.03503 8.53657 352 ft 31 kts 249°
2026-05-07 19:59 50.03442 8.53494 347 ft 7 kts 209°
2026-05-07 20:00 50.03395 8.53474 349 ft 8 kts 166°
2026-05-07 20:00 50.03387 8.53481 348 ft 0 kts 148°
2026-05-07 20:00 50.03375 8.53496 353 ft 10 kts 139°
2026-05-07 20:00 50.03311 8.53648 347 ft 18 kts 87°
2026-05-07 20:01 50.03388 8.53988 348 ft 64 kts 69°
2026-05-07 20:01 50.03613 8.54934 349 ft 121 kts 69°
2026-05-07 20:01 50.03960 8.56386 435 ft 155 kts 69°
2026-05-07 20:01 50.04321 8.57938 1026 ft 154 kts 69°
2026-05-07 20:02 50.04696 8.59526 1644 ft 156 kts 69°
2026-05-07 20:02 50.05057 8.61125 2244 ft 157 kts 70°
2026-05-07 20:02 50.05417 8.62734 2784 ft 158 kts 70°
2026-05-07 20:02 50.05799 8.64440 3017 ft 180 kts 69°
2026-05-07 20:03 50.06240 8.66410 3272 ft 203 kts 69°
2026-05-07 20:03 50.06734 8.68620 3636 ft 224 kts 69°
2026-05-07 20:03 50.07489 8.70718 4338 ft 228 kts 45°
2026-05-07 20:03 50.08829 8.72184 4791 ft 248 kts 22°
2026-05-07 20:04 50.10470 8.73289 5414 ft 262 kts 22°
2026-05-07 20:04 50.12153 8.74406 6231 ft 268 kts 21°
2026-05-07 20:04 50.13884 8.75556 7040 ft 273 kts 22°
2026-05-07 20:04 50.15652 8.76740 7872 ft 277 kts 22°
2026-05-07 20:05 50.17436 8.77942 8681 ft 281 kts 22°
2026-05-07 20:05 50.19222 8.79150 9486 ft 285 kts 22°
2026-05-07 20:05 50.21067 8.80399 10261 ft 290 kts 22°
2026-05-07 20:05 50.22981 8.81694 10508 ft 313 kts 22°
2026-05-07 20:06 50.25057 8.83084 10686 ft 336 kts 20°
2026-05-07 20:06 50.27350 8.84292 10802 ft 358 kts 16°
2026-05-07 20:06 50.29773 8.85473 10935 ft 378 kts 17°
2026-05-07 20:06 50.32336 8.86746 11266 ft 390 kts 17°
2026-05-07 20:07 50.34947 8.88070 11824 ft 395 kts 17°
2026-05-07 20:07 50.37557 8.89412 12417 ft 399 kts 17°
2026-05-07 20:07 50.40224 8.90793 13026 ft 403 kts 17°
2026-05-07 20:07 50.42875 8.92171 13661 ft 408 kts 17°
2026-05-07 20:08 50.45593 8.93585 14246 ft 412 kts 17°
2026-05-07 20:08 50.48333 8.95009 14807 ft 415 kts 17°
2026-05-07 20:08 50.51094 8.96443 15372 ft 418 kts 17°
2026-05-07 20:08 50.53870 8.97884 15916 ft 421 kts 17°
2026-05-07 20:09 50.56631 8.99320 16441 ft 424 kts 17°
2026-05-07 20:09 50.59465 9.00795 16953 ft 427 kts 17°
2026-05-07 20:09 50.62272 9.02251 17473 ft 430 kts 17°
2026-05-07 20:10 50.68011 9.05229 18465 ft 436 kts 17°
2026-05-07 20:10 50.70902 9.06740 18887 ft 438 kts 17°
2026-05-07 20:10 50.73813 9.08264 19316 ft 441 kts 17°
2026-05-07 20:10 50.76735 9.09792 19735 ft 443 kts 17°
2026-05-07 20:11 50.79642 9.11312 20147 ft 446 kts 17°
2026-05-07 20:11 50.82609 9.12871 20544 ft 448 kts 17°
2026-05-07 20:11 50.85587 9.14443 20923 ft 451 kts 17°
2026-05-07 20:11 50.88540 9.16004 21276 ft 453 kts 17°
2026-05-07 20:12 50.91544 9.17595 21607 ft 455 kts 17°
2026-05-07 20:12 50.94560 9.19207 21941 ft 458 kts 17°
2026-05-07 20:12 50.97592 9.20833 22258 ft 460 kts 17°
2026-05-07 20:12 51.00635 9.22471 22576 ft 462 kts 17°
2026-05-07 20:13 51.03650 9.24099 22879 ft 464 kts 17°
2026-05-07 20:13 51.06717 9.25763 23178 ft 466 kts 18°
2026-05-07 20:13 51.09799 9.27437 23552 ft 466 kts 17°
2026-05-07 20:13 51.12892 9.28787 23945 ft 464 kts 11°
2026-05-07 20:14 51.16059 9.29881 24341 ft 463 kts 11°
2026-05-07 20:14 51.19208 9.30964 24742 ft 461 kts 11°
2026-05-07 20:14 51.22317 9.32035 25152 ft 460 kts 11°
2026-05-07 20:14 51.25450 9.33118 25578 ft 459 kts 11°
2026-05-07 20:15 51.28572 9.34201 26011 ft 457 kts 11°
2026-05-07 20:15 51.31679 9.35280 26452 ft 456 kts 11°
2026-05-07 20:15 51.34739 9.36344 26899 ft 455 kts 11°
2026-05-07 20:15 51.37850 9.37428 27347 ft 454 kts 11°
2026-05-07 20:16 51.40941 9.38503 27808 ft 452 kts 11°
2026-05-07 20:16 51.43982 9.39565 28271 ft 451 kts 11°
2026-05-07 20:16 51.47050 9.40639 28748 ft 450 kts 11°
2026-05-07 20:16 51.50105 9.41709 29228 ft 448 kts 11°
2026-05-07 20:17 51.53159 9.42781 29726 ft 447 kts 11°
2026-05-07 20:17 51.56170 9.43838 30210 ft 446 kts 11°
2026-05-07 20:17 51.59204 9.44906 30617 ft 445 kts 11°
2026-05-07 20:17 51.62248 9.45981 31027 ft 444 kts 11°
2026-05-07 20:18 51.65238 9.47038 31424 ft 444 kts 11°
2026-05-07 20:18 51.68274 9.48109 31822 ft 443 kts 11°
2026-05-07 20:18 51.71253 9.49160 32214 ft 443 kts 11°
2026-05-07 20:18 51.74273 9.50227 32627 ft 442 kts 11°
2026-05-07 20:19 51.77292 9.51297 33012 ft 442 kts 11°
2026-05-07 20:19 51.80308 9.52367 33115 ft 446 kts 12°
2026-05-07 20:19 51.83281 9.53796 33125 ft 454 kts 20°
2026-05-07 20:20 51.89030 9.58313 33119 ft 460 kts 26°
2026-05-07 20:20 51.94726 9.63049 33117 ft 461 kts 26°
2026-05-07 20:21 52.00420 9.67782 33115 ft 461 kts 26°
2026-05-07 20:21 52.05179 9.71741 33120 ft 461 kts 26°
2026-05-07 20:22 52.11844 9.77309 33120 ft 461 kts 26°
2026-05-07 20:22 52.16583 9.81282 33127 ft 461 kts 26°
2026-05-07 20:22 52.19437 9.83677 32967 ft 461 kts 26°
2026-05-07 20:23 52.22281 9.86065 32353 ft 459 kts 26°
2026-05-07 20:23 52.25181 9.88269 31427 ft 459 kts 20°
2026-05-07 20:23 52.28192 9.89798 30523 ft 459 kts 14°
2026-05-07 20:23 52.31292 9.91146 29820 ft 455 kts 14°
2026-05-07 20:24 52.34300 9.92466 29676 ft 439 kts 14°
2026-05-07 20:24 52.37207 9.93750 29526 ft 425 kts 14°
2026-05-07 20:24 52.39988 9.94979 29380 ft 412 kts 14°
2026-05-07 20:24 52.42726 9.96189 29215 ft 400 kts 14°
2026-05-07 20:25 52.45383 9.97365 29067 ft 390 kts 14°
2026-05-07 20:25 52.47983 9.98515 28819 ft 384 kts 14°
2026-05-07 20:25 52.50521 9.99638 28475 ft 380 kts 14°
2026-05-07 20:25 52.53074 10.00767 28104 ft 378 kts 14°
2026-05-07 20:26 52.55618 10.01894 27718 ft 376 kts 14°
2026-05-07 20:26 52.58141 10.03015 27330 ft 374 kts 14°
2026-05-07 20:26 52.60621 10.04120 26945 ft 372 kts 14°
2026-05-07 20:26 52.63119 10.05236 26551 ft 370 kts 14°
2026-05-07 20:27 52.65603 10.06346 26161 ft 368 kts 14°
2026-05-07 20:27 52.68073 10.07448 25772 ft 366 kts 14°
2026-05-07 20:27 52.70516 10.08539 25257 ft 368 kts 14°
2026-05-07 20:27 52.73013 10.09657 24721 ft 371 kts 14°
2026-05-07 20:28 52.75490 10.10764 24194 ft 373 kts 13°
2026-05-07 20:28 52.78041 10.11557 23936 ft 366 kts
2026-05-07 20:28 52.80525 10.11856 23745 ft 357 kts 360°
2026-05-07 20:28 52.83008 10.11941 23345 ft 354 kts 360°
2026-05-07 20:29 52.85472 10.12028 22719 ft 350 kts 360°
2026-05-07 20:29 52.87877 10.12114 22137 ft 348 kts 360°
2026-05-07 20:29 52.90287 10.12202 21545 ft 345 kts 360°
2026-05-07 20:29 52.92680 10.12287 20977 ft 342 kts 360°
2026-05-07 20:30 52.95054 10.12366 20417 ft 339 kts 360°
2026-05-07 20:30 52.97405 10.12442 19869 ft 338 kts
2026-05-07 20:30 52.99740 10.12516 19430 ft 338 kts
2026-05-07 20:30 53.02056 10.12590 19527 ft 330 kts
2026-05-07 20:31 53.04383 10.12665 19760 ft 335 kts
2026-05-07 20:31 53.06725 10.12739 19523 ft 334 kts
2026-05-07 20:31 53.09038 10.12819 19294 ft 344 kts
2026-05-07 20:31 53.11537 10.12912 19052 ft 374 kts
2026-05-07 20:32 53.14218 10.13006 18809 ft 389 kts
2026-05-07 20:32 53.16865 10.13095 18627 ft 377 kts
2026-05-07 20:32 53.19423 10.13177 18497 ft 356 kts
2026-05-07 20:32 53.21824 10.13254 18345 ft 337 kts
2026-05-07 20:33 53.24156 10.13329 18134 ft 329 kts
2026-05-07 20:33 53.26442 10.13401 17669 ft 329 kts
2026-05-07 20:33 53.28681 10.13470 17390 ft 323 kts
2026-05-07 20:33 53.30925 10.13539 17038 ft 321 kts
2026-05-07 20:34 53.33157 10.13609 16672 ft 319 kts
2026-05-07 20:34 53.35380 10.13677 16305 ft 317 kts
2026-05-07 20:34 53.37553 10.13744 15904 ft 316 kts
2026-05-07 20:34 53.39769 10.13812 15183 ft 318 kts
2026-05-07 20:35 53.41972 10.13874 14535 ft 314 kts
2026-05-07 20:35 53.44160 10.13934 13906 ft 311 kts
2026-05-07 20:35 53.46316 10.13993 13209 ft 308 kts
2026-05-07 20:35 53.48429 10.14042 12526 ft 306 kts
2026-05-07 20:36 53.50554 10.14081 11854 ft 303 kts
2026-05-07 20:36 53.52658 10.14031 11190 ft 300 kts 352°
2026-05-07 20:36 53.54602 10.12881 10544 ft 297 kts 326°
2026-05-07 20:36 53.56033 10.10477 9901 ft 295 kts 301°
2026-05-07 20:37 53.56700 10.07253 9202 ft 293 kts 275°
2026-05-07 20:37 53.56455 10.03895 8513 ft 290 kts 248°
2026-05-07 20:37 53.55379 10.01053 7840 ft 288 kts 227°
2026-05-07 20:37 53.54001 9.98618 7184 ft 287 kts 225°
2026-05-07 20:38 53.52610 9.96267 6542 ft 286 kts 224°
2026-05-07 20:38 53.51196 9.93887 5850 ft 285 kts 224°
2026-05-07 20:38 53.49802 9.91525 5209 ft 282 kts 224°
2026-05-07 20:38 53.48480 9.89261 5010 ft 264 kts 224°
2026-05-07 20:39 53.47216 9.87086 4882 ft 255 kts 224°
2026-05-07 20:39 53.45995 9.84978 4671 ft 250 kts 224°
2026-05-07 20:39 53.44787 9.82891 4384 ft 248 kts 224°
2026-05-07 20:39 53.43611 9.80853 4181 ft 242 kts 224°
2026-05-07 20:40 53.42455 9.78842 4045 ft 233 kts 224°
2026-05-07 20:40 53.41482 9.76760 3908 ft 225 kts 246°
2026-05-07 20:40 53.41273 9.74243 3735 ft 218 kts 281°
2026-05-07 20:40 53.41837 9.72188 3483 ft 214 kts 313°
2026-05-07 20:41 53.42944 9.70484 3159 ft 214 kts 328°
2026-05-07 20:41 53.44327 9.69797 3013 ft 206 kts
2026-05-07 20:41 53.45680 9.70331 3007 ft 196 kts 22°
2026-05-07 20:41 53.46914 9.71083 3039 ft 182 kts 24°
2026-05-07 20:42 53.48068 9.71823 3012 ft 177 kts 24°
2026-05-07 20:42 53.49221 9.72564 3002 ft 176 kts 24°
2026-05-07 20:42 53.50327 9.73428 2997 ft 173 kts 40°
2026-05-07 20:42 53.51141 9.74879 3010 ft 171 kts 53°
2026-05-07 20:43 53.51897 9.76396 3010 ft 171 kts 53°
2026-05-07 20:43 53.52647 9.77898 2901 ft 167 kts 53°
2026-05-07 20:43 53.53370 9.79348 2715 ft 154 kts 53°
2026-05-07 20:43 53.54019 9.80647 2545 ft 142 kts 54°
2026-05-07 20:44 53.54646 9.81908 2353 ft 138 kts 53°
2026-05-07 20:44 53.55259 9.83140 2161 ft 136 kts 54°
2026-05-07 20:44 53.55863 9.84355 1981 ft 135 kts 54°
2026-05-07 20:44 53.56456 9.85547 1796 ft 134 kts 54°
2026-05-07 20:45 53.57055 9.86754 1610 ft 134 kts 54°
2026-05-07 20:45 53.57649 9.87950 1424 ft 133 kts 54°
2026-05-07 20:45 53.58241 9.89143 1239 ft 132 kts 53°
2026-05-07 20:45 53.58823 9.90307 1060 ft 132 kts 53°
2026-05-07 20:46 53.59416 9.91481 867 ft 131 kts 53°
2026-05-07 20:46 53.59980 9.92691 706 ft 133 kts 53°
2026-05-07 20:46 53.60573 9.93889 458 ft 132 kts 50°
2026-05-07 20:46 53.61162 9.95055 276 ft 133 kts 50°
2026-05-07 20:47 53.61755 9.96239 94 ft 132 kts 50°
2026-05-07 20:47 53.62296 9.97330 46 ft 100 kts 50°
2026-05-07 20:47 53.62646 9.98042 46 ft 61 kts 51°
2026-05-07 20:47 53.62893 9.98543 47 ft 53 kts 50°
2026-05-07 20:48 53.63128 9.99014 50 ft 52 kts 50°
2026-05-07 20:48 53.63291 9.99436 50 ft 37 kts 83°
2026-05-07 20:48 53.63283 9.99606 49 ft 8 kts 99°
2026-05-07 20:48 53.63281 9.99627 49 ft 0 kts 99°
2026-05-07 20:49 53.63278 9.99659 49 ft 5 kts 96°
2026-05-07 20:49 53.63282 9.99740 49 ft 9 kts 77°
2026-05-07 20:50 53.63319 9.99839 49 ft 12 kts 53°
2026-05-07 20:50 53.63374 9.99958 50 ft 14 kts 51°
2026-05-07 20:50 53.63424 10.00106 51 ft 15 kts 96°
2026-05-07 20:50 53.63368 10.00224 51 ft 11 kts 156°
2026-05-07 20:51 53.63327 10.00320 47 ft 10 kts 101°
2026-05-07 20:51 53.63329 10.00369 47 ft 0 kts 81°